South St. Paul, MN

4:10 PM CDT on July 20, 2017 (GMT -0500)
South Saint Paul Municipal-Fleming

Weather History for KSGS - December, 2013

Change the Weather History Date:

Friday, December 20, 2013

  Actual Average (KSTP) Record (KSTP)
Temperature  
Mean Temperature 20 °F -  
Max Temperature 22 °F 24 °F 41 °F (2015)
Min Temperature 19 °F 9 °F -14 °F (1996)
Degree Days  
Heating Degree Days 44    
Moisture  
Dew Point 14 °F    
Average Humidity 75    
Maximum Humidity 82    
Minimum Humidity 71    
Precipitation  
Precipitation 0.00 in - - ()
Sea Level Pressure  
Sea Level Pressure 29.94 in    
Wind  
Wind Speed 1 mph (NNW)    
Max Wind Speed 5 mph    
Max Gust Speed -    
Visibility 10 miles    
Events Snow    
Averages and records for this station are not official NWS values.
T = Trace of Precipitation, MM = Missing Value Source: NWS Daily Summary

Daily Weather History Graph

Daily Weather History Graph

Search for Another Location

Airport or City:

Trip Planner

Search our weather history database for the weather conditions in past years. The results will help you decide how hot, cold, wet, or windy it might be!

Date:

Astronomy

Dec. 20, 2013 Rise Set
Actual Time 7:46 AM CST 4:33 PM CST
Civil Twilight 7:12 AM CST 5:07 PM CST
Nautical Twilight 6:35 AM CST 5:44 PM CST
Astronomical Twilight 5:59 AM CST 6:20 PM CST
Moon 8:02 PM CST 9:33 AM CST
Length of Visible Light 9h 54m
Length of Day
8h 47m
Waning Gibbous, 90% of the Moon is Illuminated
Dec 20
Waning Gibbous
Dec 25
Last Quarter
Jan 1
New
Jan 7
First Quarter
Jan 15
Full

Hourly Weather History & Observations

Time (CST) Temp. Windchill Dew Point Humidity Pressure Visibility Wind Dir Wind Speed Gust Speed Precip Events Conditions
12:12 AM 21.2 °F - 15.6 °F 79% 30.02 in 5.0 mi North - - N/A Snow Light Snow
12:32 AM 21.2 °F - 15.6 °F 79% 30.01 in 5.0 mi North - - N/A Snow Light Snow
12:52 AM 21.2 °F - 15.8 °F 80% 30.00 in 2.0 mi North - - N/A Snow Light Snow
1:12 AM 21.0 °F - 16.3 °F 82% 29.99 in 3.0 mi North - - N/A Snow Light Snow
1:32 AM 21.0 °F - 16.2 °F 81% 29.99 in 4.0 mi North - - N/A   Overcast
1:52 AM 21.0 °F - 15.8 °F 80% 29.99 in 7.0 mi North - - N/A   Overcast
2:12 AM 21.0 °F - 14.9 °F 77% 29.99 in 10.0 mi North - - N/A Snow Light Snow
2:32 AM 20.8 °F - 14.7 °F 77% 29.99 in 10.0 mi North - - N/A   Overcast
2:52 AM 20.8 °F - 14.5 °F 77% 29.99 in 10.0 mi North - - N/A   Overcast
3:12 AM 20.8 °F - 14.4 °F 76% 29.99 in 10.0 mi North - - N/A   Overcast
3:32 AM 20.8 °F - 14.4 °F 76% 29.99 in 10.0 mi North - - N/A   Overcast
3:52 AM 20.8 °F - 14.5 °F 77% 29.99 in 10.0 mi North - - N/A   Overcast
4:12 AM 20.7 °F - 14.0 °F 75% 29.98 in 10.0 mi North - - N/A   Overcast
4:32 AM 20.5 °F - 14.0 °F 76% 29.98 in 10.0 mi North - - N/A   Overcast
4:52 AM 20.7 °F - 13.8 °F 75% 29.99 in 10.0 mi North - - N/A   Overcast
5:12 AM 20.3 °F - 14.0 °F 77% 29.99 in 10.0 mi North - - N/A   Overcast
5:32 AM 20.3 °F - 13.8 °F 76% 29.99 in 10.0 mi North - - N/A   Overcast
5:52 AM 20.3 °F - 13.6 °F 75% 30.00 in 10.0 mi North - - N/A   Overcast
6:12 AM 20.3 °F - 13.6 °F 75% 30.00 in 10.0 mi North - - N/A   Overcast
6:32 AM 20.3 °F - 13.6 °F 75% 29.99 in 10.0 mi North - - N/A   Overcast
6:52 AM 19.9 °F - 13.1 °F 75% 29.99 in 10.0 mi North - - N/A   Overcast
7:12 AM 19.9 °F - 13.5 °F 76% 29.98 in 10.0 mi North - - N/A   Overcast
7:32 AM 19.9 °F - 13.5 °F 76% 29.98 in 10.0 mi North - - N/A   Overcast
7:52 AM 19.9 °F - 13.1 °F 75% 29.98 in 10.0 mi North - - N/A   Overcast
8:12 AM 19.9 °F - 13.1 °F 75% 29.99 in 10.0 mi North - - N/A   Overcast
8:32 AM 19.9 °F - 12.9 °F 74% 29.98 in 10.0 mi North - - N/A   Overcast
8:52 AM 20.1 °F - 12.7 °F 73% 29.99 in 10.0 mi North - - N/A   Overcast
9:12 AM 20.1 °F - 12.7 °F 73% 29.99 in 10.0 mi North - - N/A   Overcast
9:32 AM 20.3 °F - 13.1 °F 74% 29.99 in 10.0 mi North - - N/A   Overcast
9:52 AM 20.3 °F - 12.9 °F 73% 29.98 in 10.0 mi North - - N/A   Overcast
10:12 AM 20.3 °F - 12.7 °F 73% 29.98 in 10.0 mi North - - N/A   Overcast
10:32 AM 20.7 °F - 12.9 °F 72% 29.97 in 10.0 mi North - - N/A   Unknown
10:52 AM 20.8 °F - 12.9 °F 71% 29.97 in 10.0 mi North - - N/A   Overcast
11:12 AM 21.0 °F - 13.1 °F 71% 29.95 in 7.0 mi North - - N/A Snow Light Snow
11:32 AM 20.3 °F - 13.6 °F 75% 29.95 in - North - - N/A   Unknown
11:52 AM 20.3 °F - 13.8 °F 76% 29.95 in 10.0 mi North - - N/A   Overcast
12:12 PM 21.7 °F - 14.4 °F 73% 29.95 in 10.0 mi North - - N/A   Overcast
12:32 PM 22.3 °F - 14.7 °F 73% 29.94 in 10.0 mi Calm Calm - N/A   Unknown
12:52 PM 20.5 °F - 13.1 °F 73% 29.93 in 10.0 mi Calm Calm - N/A   Overcast
1:12 PM 20.3 °F 15.4 °F 13.6 °F 75% 29.93 in 10.0 mi North 3.5 mph - N/A   Mostly Cloudy
1:32 PM 20.7 °F 14.2 °F 13.5 °F 74% 29.91 in 10.0 mi North 4.6 mph - N/A   Mostly Cloudy
1:52 PM 20.7 °F 14.2 °F 13.5 °F 74% 29.91 in 10.0 mi NNW 4.6 mph - N/A   Mostly Cloudy
2:12 PM 20.8 °F 14.4 °F 13.3 °F 73% 29.91 in 10.0 mi NNW 4.6 mph - N/A   Overcast
2:32 PM 20.8 °F 14.4 °F 13.5 °F 73% 29.90 in 10.0 mi NNW 4.6 mph - N/A   Overcast
2:52 PM 21.2 °F 16.4 °F 13.6 °F 73% 29.90 in 10.0 mi North 3.5 mph - N/A   Overcast
3:12 PM 21.2 °F 14.9 °F 13.8 °F 73% 29.91 in 10.0 mi North 4.6 mph - N/A   Overcast
3:32 PM 21.2 °F 16.4 °F 13.8 °F 73% 29.90 in 10.0 mi North 3.5 mph - N/A   Overcast
3:52 PM 21.2 °F 14.9 °F 14.0 °F 74% 29.90 in 10.0 mi NNW 4.6 mph - N/A   Overcast
4:12 PM 21.0 °F 16.2 °F 14.0 °F 74% 29.90 in 10.0 mi NNW 3.5 mph - N/A   Overcast
4:32 PM 21.0 °F - 14.0 °F 74% 29.90 in 10.0 mi Calm Calm - N/A   Overcast
4:52 PM 21.0 °F - 14.0 °F 74% 29.90 in 10.0 mi Calm Calm - N/A   Overcast
5:12 PM 21.2 °F - 14.0 °F 74% 29.90 in 10.0 mi Calm Calm - N/A   Overcast
5:32 PM 21.2 °F - 14.4 °F 75% 29.89 in 10.0 mi Calm Calm - N/A   Overcast
5:52 PM 21.2 °F - 14.5 °F 75% 29.89 in 10.0 mi Calm Calm - N/A   Overcast
6:12 PM 21.6 °F - 14.5 °F 74% 29.90 in 10.0 mi Calm Calm - N/A   Overcast
6:32 PM 21.6 °F - 14.2 °F 73% 29.89 in 10.0 mi Calm Calm - N/A   Overcast
6:52 PM 21.6 °F - 14.4 °F 74% 29.90 in 10.0 mi Calm Calm - N/A   Overcast
7:12 PM 21.7 °F - 14.9 °F 75% 29.90 in 10.0 mi Calm Calm - N/A   Overcast
7:32 PM 21.7 °F - 14.7 °F 74% 29.89 in 10.0 mi Calm Calm - N/A   Overcast
7:52 PM 21.4 °F - 14.7 °F 75% 29.90 in 10.0 mi Calm Calm - N/A Snow Light Snow
8:12 PM 21.7 °F - 15.3 °F 76% 29.90 in 10.0 mi Calm Calm - N/A   Overcast
8:32 PM 21.7 °F - 15.4 °F 77% 29.89 in 10.0 mi Calm Calm - N/A   Overcast
8:52 PM 21.7 °F - 15.4 °F 77% 29.88 in 10.0 mi Calm Calm - N/A   Overcast
9:12 PM 21.6 °F - 15.6 °F 78% 29.88 in 10.0 mi Calm Calm - N/A   Overcast
9:32 PM 21.7 °F - 15.8 °F 78% 29.87 in 10.0 mi Calm Calm - N/A   Overcast
9:52 PM 21.7 °F - 15.8 °F 78% 29.86 in 10.0 mi Calm Calm - N/A   Overcast
10:12 PM 21.7 °F - 15.8 °F 78% 29.85 in 10.0 mi Calm Calm - N/A   Overcast
10:32 PM 21.7 °F - 15.4 °F 77% 29.86 in 10.0 mi Calm Calm - N/A   Overcast
10:52 PM 21.9 °F - 15.4 °F 76% 29.85 in 10.0 mi Calm Calm - N/A   Overcast
11:12 PM 22.1 °F - 15.6 °F 76% 29.85 in 10.0 mi Calm Calm - N/A   Overcast
11:32 PM 22.1 °F - 15.4 °F 76% 29.86 in 10.0 mi Calm Calm - N/A   Overcast
11:52 PM 22.1 °F - 15.4 °F 76% 29.86 in 10.0 mi Calm Calm - N/A   Overcast